This is the latest recevied weather packets stored in our database for station/object DJ4RO-13. If no packets are shown the sender has not sent any weather packets the latest 10 day(s).
| Time | Temp. | Humidity | Pressure | Rain* | Wind** | Luminosity | Snow |
|---|---|---|---|---|---|---|---|
| 1777542541 | 17.22° C | 36% | 1037.3 hPa | 0 mm | - | 584 W/m² | - |
| 1777542221 | 17.22° C | 35% | 1037.4 hPa | 0 mm | - | 577 W/m² | - |
| 1777541912 | 16.67° C | 35% | 1037.6 hPa | 0 mm | - | 579 W/m² | - |
| 1777541612 | 16.11° C | 36% | 1037.4 hPa | 0 mm | - | 574 W/m² | - |
| 1777541292 | 16.11° C | 37% | 1037.7 hPa | 0 mm | - | 569 W/m² | - |
| 1777540973 | 16.11° C | 38% | 1037.7 hPa | 0 mm | - | 564 W/m² | - |
| 1777540653 | 15.56° C | 38% | 1037.6 hPa | 0 mm | - | 555 W/m² | - |
| 1777540293 | 15° C | 39% | 1037.5 hPa | 0 mm | - | 536 W/m² | - |
| 1777539993 | 15.56° C | 39% | 1037.5 hPa | 0 mm | - | 544 W/m² | - |
| 1777539692 | 15° C | 39% | 1037.8 hPa | 0 mm | - | 538 W/m² | - |
| 1777539332 | 15.56° C | 38% | 1037.7 hPa | 0 mm | - | 531 W/m² | - |
| 1777539032 | 15.56° C | 37% | 1037.5 hPa | 0 mm | - | 524 W/m² | - |
| 1777538733 | 15.56° C | 37% | 1037.8 hPa | 0 mm | - | 513 W/m² | - |
| 1777538429 | 15° C | 38% | 1038.1 hPa | 0 mm | - | 514 W/m² | - |
| 1777538109 | 15° C | 38% | 1038 hPa | 0 mm | - | 504 W/m² | - |
| 1777537789 | 15.56° C | 37% | 1037.9 hPa | 0 mm | - | 498 W/m² | - |
| 1777537472 | 15° C | 37% | 1037.9 hPa | 0 mm | - | 489 W/m² | - |
| 1777537172 | 14.44° C | 38% | 1038 hPa | 0 mm | - | 480 W/m² | - |
| 1777536860 | 13.89° C | 40% | 1037.7 hPa | 0 mm | - | 473 W/m² | - |
| 1777536541 | 13.89° C | 39% | 1038 hPa | 0 mm | - | 464 W/m² | - |
| 1777536221 | 13.89° C | 37% | 1038.1 hPa | 0 mm | - | 456 W/m² | - |
| 1777535913 | 13.89° C | 40% | 1038 hPa | 0 mm | - | 442 W/m² | - |
| 1777535553 | 13.33° C | 41% | 1038 hPa | 0 mm | - | 431 W/m² | - |
| 1777535253 | 13.33° C | 40% | 1038.1 hPa | 0 mm | - | 423 W/m² | - |
| 1777534892 | 12.78° C | 42% | 1038.1 hPa | 0 mm | - | 410 W/m² | - |
* Rain latest hour (hover to see other rain measurements)
** Current wind speed in m/s (hover to see current wind gust speed)